Content
SEND FEEDBACK

Daily
Averages
Monthly
Summary
United States of America

MANGILAO, GUAM


Home > North America > United States > Guam
Elevation: 60 feet     Latitude: 13 27N     Longitude: 144 49E

WEATHER
 
SELECT A DAY
Number of Records: 351,620;   Date Range: 1/1/95 - 10/20/14
 
SHARE

PRINT THIS DATA

[ ← Previous Day ]
WEATHER ALMANAC - APRIL 17, 2013
[ Next Day → ]
[ °C ]   °F
Weather ElementAverageHighLow
Temperature80.3 °F84.4 °F (12:55 pm)74.5 °F (5:55 am)
Dewpoint72 °F73.4 °F (10:31 am)68.9 °F (5:55 am)
Humidity75.9 %84 % (10:55 pm)66 % (2:50 pm)
Barometer29.83 in29.88 in (8:15 am)29.77 in (3:55 pm)
Wind Speed10.5 mph13.8 mph (9:37 am)
Wind Gust19.6 mph (3:36 pm)
Weather ElementAverage
Visibility10 mi
Wind DirectionENE (70.3 °)

Weather ElementTotal
Precipitation---
Cooling Degree Days14.5 (Base 65)
Growing Degree Days29.5 (Base 50)
Averaged from 58 records on April 17, 2013
WEATHER CONDITIONS BREAKOUT
WIND DIRECTION BREAKOUT
WEATHER BY HOUR - APRIL 17, 2013
[ °C ]   °F
Local TimeTemperatureDewpointHumidityBarometerVisibilityWind DirectionWind SpeedGust SpeedPrecipitationEventsConditions
1:26 AM78.8 °F71.6 °F78 %29.85 in10.0 miNE (50°)10.4 mphMostly Cloudy
1:27 AM78.8 °F71.6 °F78 %29.85 in10.0 miNE (40°)9.2 mphScattered Clouds
1:30 AM78.8 °F71.6 °F78 %29.85 in10.0 miNE (40°)10.4 mphMostly Cloudy
1:48 AM77.0 °F71.6 °F83 %29.84 in10.0 miNE (50°)10.4 mphScattered Clouds
1:55 AM77.7 °F70.9 °F79 %29.84 in10.0 miNE (50°)10.4 mphScattered Clouds
2:55 AM77.0 °F70.5 °F80 %29.83 in10.0 miNE (50°)12.7 mphPartly Cloudy
3:55 AM76.8 °F71.1 °F82 %29.82 in10.0 miENE (60°)10.4 mphPartly Cloudy
4:55 AM76.6 °F70.0 °F80 %29.83 in10.0 miNE (50°)9.2 mphPartly Cloudy
5:55 AM74.5 °F68.9 °F83 %29.83 in10.0 miENE (60°)9.2 mphClear
6:55 AM77.2 °F70.3 °F79 %29.85 in10.0 miENE (60°)11.5 mphPartly Cloudy
7:55 AM79.5 °F71.6 °F77 %29.87 in10.0 miENE (60°)9.2 mphScattered Clouds
8:05 AM80.6 °F71.6 °F74 %29.87 in10.0 miEast (80°)9.2 mphMostly Cloudy
8:15 AM80.6 °F71.6 °F74 %29.88 in10.0 miENE (60°)12.7 mphScattered Clouds
8:55 AM81.3 °F71.4 °F72 %29.88 in10.0 miENE (60°)11.5 mphScattered Clouds
9:07 AM80.6 °F71.6 °F74 %29.88 in10.0 miENE (60°)11.5 mphMostly Cloudy
9:28 AM82.4 °F71.6 °F70 %29.88 in10.0 miNE (50°)11.5 mphScattered Clouds
9:37 AM82.4 °F71.6 °F70 %29.87 in10.0 miENE (60°)13.8 mphMostly Cloudy
9:55 AM82.8 °F72.3 °F71 %29.87 in10.0 miENE (60°)10.4 mphMostly Cloudy
10:31 AM82.4 °F73.4 °F74 %29.85 in10.0 miEast (80°)11.5 mphScattered Clouds
10:55 AM84.0 °F73.0 °F69 %29.84 in10.0 miENE (60°)12.7 mphScattered Clouds
11:08 AM82.4 °F73.4 °F74 %29.84 in10.0 miENE (70°)9.2 mphMostly Cloudy
11:36 AM82.4 °F73.4 °F74 %29.83 in10.0 miEast (80°)12.7 mphScattered Clouds
11:55 AM83.8 °F72.5 °F69 %29.83 in10.0 miENE (70°)12.7 mphScattered Clouds
12:55 PM84.4 °F72.3 °F67 %29.82 in10.0 miEast (80°)11.5 mphMostly Cloudy
1:55 PM84.2 °F72.3 °F67 %29.79 in10.0 miEast (80°)12.7 mphClear
2:44 PM84.2 °F73.4 °F70 %29.78 in10.0 miEast (80°)11.5 mphMostly Cloudy
2:46 PM84.2 °F73.4 °F70 %29.78 in10.0 miENE (60°)10.4 mphScattered Clouds
2:48 PM82.4 °F73.4 °F74 %29.78 in10.0 miENE (60°)10.4 mphMostly Cloudy
2:50 PM84.2 °F71.6 °F66 %29.78 in10.0 miENE (70°)13.8 mphScattered Clouds
2:55 PM84.2 °F72.3 °F67 %29.78 in10.0 miEast (80°)11.5 mphScattered Clouds
2:56 PM84.2 °F71.6 °F66 %29.78 in10.0 miENE (70°)10.4 mphMostly Cloudy
3:14 PM84.2 °F71.6 °F66 %29.78 in10.0 miEast (80°)12.7 mphScattered Clouds
3:17 PM82.4 °F73.4 °F74 %29.78 in10.0 miEast (80°)10.4 mphMostly Cloudy
3:36 PM82.4 °F73.4 °F74 %29.78 in10.0 miEast (80°)12.7 mph19.6 mphScattered Clouds
3:55 PM83.1 °F71.6 °F68 %29.77 in10.0 miEast (80°)11.5 mphScattered Clouds
4:55 PM82.4 °F71.4 °F69 %29.78 in10.0 miEast (100°)10.4 mphPartly Cloudy
5:55 PM80.1 °F71.1 °F74 %29.81 in10.0 miEast (90°)9.2 mphPartly Cloudy
6:38 PM78.8 °F71.6 °F78 %29.82 in10.0 miENE (70°)8.1 mphMostly Cloudy
6:41 PM78.8 °F71.6 °F78 %29.82 in10.0 miEast (80°)9.2 mphMostly Cloudy
6:45 PM78.8 °F71.6 °F78 %29.82 in10.0 miEast (80°)8.1 mphMostly Cloudy
6:55 PM79.3 °F71.8 °F78 %29.83 in10.0 miEast (80°)10.4 mphMostly Cloudy
6:57 PM78.8 °F71.6 °F78 %29.83 in10.0 miEast (80°)9.2 mphMostly Cloudy
7:00 PM78.8 °F71.6 °F78 %29.83 in10.0 miENE (70°)10.4 mphMostly Cloudy
7:55 PM78.4 °F71.2 °F78 %29.84 in10.0 miENE (60°)6.9 mphPartly Cloudy
8:03 PM78.8 °F71.6 °F78 %29.84 in10.0 miENE (70°)8.1 mphRainLight Rain
8:07 PM78.8 °F71.6 °F78 %29.84 in10.0 miENE (70°)9.2 mphRainLight Rain
8:12 PM78.8 °F73.4 °F83 %29.84 in10.0 miENE (70°)11.5 mphMostly Cloudy
8:54 PM78.8 °F73.4 °F83 %29.85 in10.0 miEast (90°)9.2 mphScattered Clouds
8:55 PM78.6 °F72.9 °F82 %29.85 in10.0 miEast (80°)10.4 mph0.00 inScattered Clouds
9:05 PM78.8 °F73.4 °F83 %29.85 in10.0 miEast (80°)9.2 mphMostly Cloudy
9:08 PM78.8 °F71.6 °F78 %29.85 in10.0 miEast (80°)10.4 mphScattered Clouds
9:22 PM78.8 °F73.4 °F83 %29.85 in10.0 miENE (70°)11.5 mphMostly Cloudy
9:38 PM78.8 °F73.4 °F83 %29.86 in10.0 miEast (90°)10.4 mphScattered Clouds
9:41 PM78.8 °F71.6 °F78 %29.86 in10.0 miEast (80°)8.1 mphMostly Cloudy
9:43 PM78.8 °F73.4 °F83 %29.86 in10.0 miEast (80°)9.2 mphScattered Clouds
9:55 PM77.9 °F72.1 °F82 %29.86 in10.0 miEast (80°)9.2 mphPartly Cloudy
10:55 PM78.1 °F72.9 °F84 %29.87 in10.0 miEast (80°)9.2 mphScattered Clouds
11:55 PM77.9 °F72.9 °F84 %29.86 in10.0 miEast (90°)9.2 mphClear
Hourly data recorded from PGUA, located miles away from Mangilao, Guam







STORIES FROM OUR PARTNERS